Tracking 19176 objects as of 28-May-2018
HD Live streaming from Space Station
objects crossing your sky now

INTELSAT 3-F2

Track INTELSAT 3-F2 now!
INTELSAT 3-F2 is classified as:


NORAD ID: 3623
Int'l Code: 1968-116A
Perigee: 38,424.6 km
Apogee: 39,332.7 km
Inclination: 11.3 °
Period: 1,596.5 minutes
Semi major axis: 45249 km
RCS: 2.5118 m2 (large)
Launch date: December 19, 1968
Source: International Telecommunications Satellite Organization (ITSO)
Launch site: AIR FORCE EASTERN TEST RANGE (AFETR)
aabbcc
Your satellite tracking list
Your tracking list is empty




NASA's NSSDC Master Catalog

Two Line Element Set (TLE):
1  3623U 68116A   18147.38849654 -.00000242 +00000-0 +00000-0 0  9993
2  3623 011.3043 314.6436 0100347 021.2403 212.5560 00.90194614056233
Source of the keplerian elements: AFSPC